User: anonymous   Login
Location: Morlupo
(42.1333°N, 12.5000°E)
Time: 20:53:25
(UTC+00:00)
Language:

Cosmos 1536 Rocket - Orbit

View from above orbital plane
View from above orbital plane
View from above satellite
View from above satellite

Ground track
Ground track

The orbit data is extracted from the following two-line orbital elements,

1 14700U 84013B   21332.41579068  .00000128  00000-0  12662-4 0  9991
2 14700  82.5379  78.3161 0020015  14.0838 100.0688 14.83358149 41910
Epoch (UTC): 28 November 2021 09:58:44
Eccentricity: 0.0020015
inclination: 82.5379°
perigee height: 605 km
apogee height: 633 km
right ascension of ascending node: 78.3161°
argument of perigee: 14.0838°
revolutions per day: 14.83358149
mean anomaly at epoch: 100.0688°
orbit number at epoch: 4191

The dashed part of the orbit path shows where the satellite is in the earth's shadow,  

DLR